AirNav   TITAN Aviation Fuels
 
 1603 users online  

GA61 Kenley Field Airport
Brooks, Georgia, USA

GOING TO BROOKS?


FAA INFORMATION EFFECTIVE 16 JUNE 2022

Location

FAA Identifier: GA61
Lat/Long: 33-16-08.4310N 084-29-49.7330W
33-16.140517N 084-29.828883W
33.2690086,-84.4971481
(estimated)
Elevation: 780 ft. / 238 m (estimated)
Variation: 02W (1985)
From city: 3 miles SW of BROOKS, GA
Time zone: UTC -4 (UTC -5 during Standard Time)
Zip code: 30205

Airport Operations

Airport use: Private use. Permission required prior to landing
Activation date: 06/1971
Control tower: no
ARTCC: ATLANTA CENTER
FSS: MACON FLIGHT SERVICE STATION
Attendance: UNATNDD
Wind indicator: yes
Segmented circle: no

Airport Communications

UNICOM: 122.8
WX ASOS at FFC (7 nm NW): 118.525 (770-487-1610)
WX AWOS-3 at HMP (11 nm NE): 124.825 (770-707-1719)
WX AWOS-3 at 6A2 (11 nm E): 119.750 (770-227-3934)
WX AWOS-3PT at CCO (14 nm W): 118.975 (770-254-1617)

Airport Services

Airframe service: NONE
Powerplant service: NONE

Runway Information

Runway NE/SW

Dimensions: 2400 x 100 ft. / 732 x 30 m
Surface: turf
RUNWAY NE  RUNWAY SW
Traffic pattern: leftleft
Obstructions: trees, 700 ft. from runwaytrees, 1500 ft. from runway

Airport Ownership and Management from official FAA records

Ownership: Privately-owned
Owner: KENLEY PARK PROP OWNERS ASSN
125 KENLEY DR
BROOKS, GA 30205
Phone 770-377-7469
Manager: CHAIRMAN - BOARD OF DIRECTORS
KENLEY PARK PROP OWNERS ASSN, 125 KENLEY DR
BROOKS, GA 30205
Phone 770-377-7469

Airport Operational Statistics

Aircraft based on the field: 6
Single engine airplanes: 5
Multi engine airplanes: 1
    

Additional Remarks

FOR CD CTC ATLANTA APCH AT 678-364-6131.

Instrument Procedures

There are no published instrument procedures at GA61.

Some nearby airports with instrument procedures:

KFFC - Atlanta Regional Airport-Falcon Field (7 nm NW)
KHMP - Atlanta Speedway Airport (11 nm NE)
6A2 - Griffin-Spalding County Airport (11 nm E)
KCCO - Newnan Coweta County Airport (14 nm W)
KOPN - Thomaston-Upson County Airport (22 nm SE)
 
Loc | Ops | Rwys | IFR | FBO | Links
Com | Nav | Svcs | Stats | Notes
Area around GA61 (Kenley Field Airport)
 
Road maps at: MapQuest Bing Google
 
Aerial photo
No photo
 
Sectional chart

 
Airport distance calculator
Flying to Kenley Field Airport? Find the distance to fly.

From to GA61

Sunrise and sunset
Times for 29-Jun-2022
 Local
(UTC-4)
 Zulu
(UTC)
Morning civil twilight06:0410:04
Sunrise06:3210:32
Sunset20:5000:50
Evening civil twilight21:1901:19

Current date and time
Zulu (UTC)  29-Jun-2022 16:04:06
Local (UTC-4)  29-Jun-2022 12:04:06
 
METAR
KFFC 
6nm NW 
291553Z AUTO 13003KT 10SM SCT014 OVC022 26/22 A3025 RMK AO2 SLP238 T02610222
KHMP 
11nm NE 
291555Z AUTO 22004KT 10SM OVC014 25/22 A3029 RMK AO2 T02520223
K6A2 
11nm E 
291555Z AUTO 00000KT 10SM SCT007 BKN011 24/23 A3026 RMK AO2 LTG DSNT E
KCCO 
14nm W 
291555Z AUTO 00000KT 10SM OVC014 25/22 A3026 RMK AO2 T02480221
TAF
KATL 
22nm N 
291348Z 2914/3018 08006KT P6SM VCSH BKN005 OVC015 FM291500 10007KT P6SM VCSH SCT008 BKN018 FM291800 11006KT P6SM VCSH SCT035 BKN060 TEMPO 2920/2924 VRB10G25KT 4SM TSRA BR BKN035CB FM300600 07003KT P6SM SCT009 BKN025 FM301200 09005KT 6SM BR BKN008 BKN015 FM301500 12006KT P6SM BKN020
NOTAMs
Click for the latest NOTAMs
NOTAMs are issued by the DoD/FAA and will open in a separate window not controlled by AirNav.

 

 
 

Would you like to see your business listed on this page?

 If your business provides an interesting product or service to pilots, flight crews, aircraft, or users of the Kenley Field Airport, you should consider listing it here.  To start the listing process, click on the button below
 
Add a business
 

Other Pages about Kenley Field Airport

Update a link
 
Copyright © AirNav, LLC. All rights reserved. Privacy Policy  Contact